Location: Wald
(31.7579°N, 86.6655°W)
Time: 12:17:27
(UTC+00:00)

MSX - Pass Details

Date: 14 July 2020
Orbit: 894 x 906 km, 98.8° (Epoch: 08 August)

Event Time Altitude Azimuth Distance (km) Brightness Sun altitude
Rises 08:55:13 0° 17° (NNE) 3,512 8.0 -21.0°
Reaches altitude 10° 08:57:40 10° 20° (NNE) 2,570 7.1 -20.7°
Maximum altitude 09:03:20 63° 101° (ESE) 996 4.2 -19.8°
Enters shadow 09:07:32 19° 179° (S) 2,022 5.3 -19.1°
